Terug naar catalogus

STARLINK-37520

ActiefCommunicatieVLEO
NORAD 69819·PAYLOAD·🇺🇸 United States

Gelanceerd Jul 5, 2026 vanaf Cape Canaveral Space Force Station

Loading…

Volgende Passages (komende 24 uur)

TLE

VersSource: CelesTrak SupGP

Epoch: Sep 14, 2026, 22:44 UTC

1 69819C 26154A   26257.94770833 -.00009103  00000+0 -26899-3 0  2572
2 69819  53.1598 357.7883 0001208  79.1412 297.5245 15.34391734    17

Volg STARLINK-37520 in realtime met AllMySat

Download on the App Store